Location: Gro�sch�nbrunn
(49.5760°N, 11.8868°E)
Time: 17:31:19
(UTC+00:00)

Iridium 4 Rocket - Pass Details

Date: 18 September 2020
Orbit: 584 x 905 km, 86.9° (Epoch: 30 October)

Event Time Altitude Azimuth Distance (km) Brightness Sun altitude
Rises 17:41:21 0° 172° (S) 3,066 6.5 -4.5°
Reaches altitude 10° 17:43:32 10° 170° (S) 2,200 5.7 -4.9°
Maximum altitude 17:48:24 66° 89° (E) 839 3.5 -5.7°
Drops below altitude 10° 17:53:48 10° 8° (N) 2,427 6.1 -6.5°
Sets 17:56:18 0° 6° (N) 3,409 6.9 -6.9°
